Tracking 28790 objects as of 19-Apr-2024
HD Live streaming from Space Station
objects crossing your sky now

TELSTAR 3C R/B(PAM-D)

Track TELSTAR 3C R/B(PAM-D) now!


NORAD ID: 15246
Int'l Code: 1984-093G
Perigee: 312.6 km
Apogee: 33,023.4 km
Inclination: 24.5 °
Period: 580.0 minutes
Semi major axis: 23039 km
RCS: 2.732 m2 (large)
Launch date: August 30, 1984
Source: United States (US)
Launch site: AIR FORCE EASTERN TEST RANGE (AFETR)

Note: This is a ROCKET BODY
Your satellite tracking list
Your tracking list is empty




NASA's NSSDC Master Catalog

Two Line Element Set (TLE):
1 15246U 84093G   24109.33447452  .00002973  00000-0  19562-2 0  9996
2 15246  24.4507 218.8351 7098989  83.6546 345.9229  2.48260109337629
Source of the keplerian elements: AFSPC